Location: Vulcan
(50.4000°N, 113.2500°W)
Time: 03:21:31
(UTC-06:00)

N. Korean satellite - Visible Passes

Search period start: 19 October 2019 00:00
Search period end: 29 October 2019 00:00
Orbit: 455 x 508 km, 97.2° (Epoch: 18 October)

Date Brightness Start Highest point End Pass type
(mag) Time Alt. Az. Time Alt. Az. Time Alt. Az.
19 Oct 8.6 07:04:42 10° NNE 07:08:01 34° E 07:11:22 10° SSE visible
19 Oct 9.3 19:18:30 10° SSW 19:21:22 25° W 19:24:17 10° NW visible
20 Oct 9.8 06:39:55 10° NE 06:42:34 19° E 06:45:12 10° SE visible
21 Oct 10.5 06:16:24 10° ENE 06:17:01 10° E 06:17:38 10° E visible
22 Oct 7.5 07:22:00 10° NNE 07:25:34 55° E 07:29:10 10° S visible
22 Oct 9.9 19:36:45 10° SW 19:38:59 16° W 19:41:14 10° NW visible
23 Oct 9.0 06:56:57 10° NE 07:00:10 29° E 07:03:23 10° SSE visible
23 Oct 8.8 19:10:24 10° SSW 19:13:28 30° W 19:16:35 10° NNW visible
24 Oct 10.0 06:32:20 10° NE 06:34:40 16° E 06:37:01 10° SE visible
25 Oct 10.4 19:55:50 10° W 19:56:37 11° W 19:57:22 10° WNW visible
26 Oct 8.0 07:14:10 10° NNE 07:17:42 45° E 07:21:15 10° S visible
26 Oct 9.6 19:28:26 10° SW 19:31:02 20° W 19:33:40 10° NW visible
27 Oct 9.3 06:49:12 10° NE 06:52:16 24° E 06:55:19 10° SSE visible
27 Oct 8.3 19:02:18 10° SSW 19:05:32 36° W 19:08:50 10° NNW visible
28 Oct 10.2 06:24:48 10° ENE 06:26:44 14° E 06:28:40 10° ESE visible
